Dewpoint
2 2 1 -1 -5 -7 -8 -10 -13 -16 -18 -19 -18 -18 -16 -15 -15 -14 -13 -12 -14 -14 -6 1 9 13 17 17 16 14 12 13 11 13 12 14 14 14 14 14 13 14 14 14 16
2 2 2 2 1 0 -2 -5 -7 -11 -14 -17 -19 -19 -18 -17 -15 -14 -10 -11 -12 -13 -11 4 14 15 15 16 16 12 14 12 9 10 8 13 13 14 14 13 13 15 14 14 16
0 0 -0 -1 0 0 0 0 -2 -6 -9 -12 -15 -17 -19 -19 -17 -12 -8 -8 -11 -13 -13 9 14 15 15 16 16 15 14 12 8 9 11 13 13 13 13 13 13 14 15 15 15
-5 -6 -6 -7 -7 -4 -3 -2 -1 -0 -4 -7 -11 -14 -16 -19 -11 -11 -8 -9 -8 -13 -3 14 14 14 14 15 16 15 13 12 11 10 12 13 13 13 13 11 11 14 14 15 15
-7 -7 -7 -8 -8 -8 -8 -6 -3 -1 -0 -4 -7 -11 -13 -17 -17 -12 -10 -11 -7 -5 5 14 14 13 14 14 14 15 12 10 10 9 8 12 13 13 13 12 13 14 15 15 15
-8 -8 -9 -9 -9 -9 -9 -8 -6 -2 -0 -2 -5 -7 -11 -14 -17 -14 -12 -11 -7 7 9 12 13 14 11 9 11 8 11 8 2 4 5 8 9 13 12 13 14 14 14 14 15
-13 -14 -14 -14 -15 -13 -9 -7 -5 -3 -0 -1 -3 -6 -10 -15 -17 -14 -12 -12 -10 -4 8 8 8 10 7 1 3 -0 -1 -2 -3 -1 1 3 8 12 12 14 14 14 14 14 14
-15 -16 -17 -18 -18 -18 -7 -6 -3 -2 -1 -1 -6 -9 -11 -17 -17 -12 -11 -10 -6 1 6 5 2 9 -1 -3 -3 -3 -2 -0 -2 -2 -1 3 3 7 12 13 14 14 14 15 15
-16 -16 -18 -19 -20 -21 -7 -6 -1 2 -2 -3 -3 -9 -8 -15 -17 -17 -14 -10 -6 2 1 2 3 1 -2 -2 -3 -4 -2 0 -1 -3 2 5 3 6 12 13 14 14 14 14 15
-18 -19 -22 -20 -20 -18 -9 -5 -3 -2 4 2 2 -3 -8 -8 -13 -16 -16 -9 1 4 3 0 -0 -0 -1 -2 -1 -3 -2 -2 -1 -1 4 5 6 8 12 13 14 14 14 14 14
-17 -17 -21 -24 -21 -15 -6 -4 -4 -1 -3 6 5 -0 -2 -5 1 -9 -12 -1 -3 -1 -2 -1 -1 -0 -2 -3 -5 -6 -5 -2 -2 -3 4 4 5 7 12 13 13 14 14 14 14
-17 -18 -19 -25 -24 -16 -6 -5 -6 -5 -1 -5 -4 -2 -1 -1 -3 -0 -13 -8 -6 -4 -4 0 -1 -4 -4 -2 -3 -5 -5 -3 -2 -4 -2 0 5 6 11 13 13 14 14 14 14
-15 -17 -18 -24 -21 -18 -12 -5 -7 -7 -1 -4 -5 -4 -4 -3 -2 -3 -7 -10 -7 -6 -4 -4 -5 -5 -2 -1 -1 -2 -5 -5 -3 -4 -2 1 1 5 10 11 12 14 13 14 14
-13 -14 -14 -22 -16 -12 -7 -4 -9 -5 -2 -4 -7 -6 -6 -5 -4 -4 -5 -8 -8 -5 -5 -6 -6 -3 -3 -2 -2 -3 -5 -6 -4 -2 0 1 3 6 6 12 12 12 14 14 14
-13 -12 -11 -12 -7 -6 -5 -6 -12 -3 -2 -4 -9 -9 -7 -5 -6 -5 -6 -5 -6 -6 -4 -4 -3 -2 -1 -3 -2 -3 -4 -5 -5 -3 -1 -1 2 2 8 11 12 12 13 13 13
-13 -11 -10 -6 -6 -6 -6 -7 -4 -3 -0 -3 -9 -9 -6 -7 -9 -5 -5 -5 -5 -4 -6 -7 -6 -4 -2 -3 -2 -3 -3 -3 -2 -2 1 -0 0 1 3 6 8 11 11 13 13
-13 -12 -8 -5 -5 -7 -6 -10 -3 -1 -4 -2 -2 -3 -3 -5 -9 -5 -3 -3 -2 -2 -1 -4 -5 -5 -5 -2 -3 -2 -3 -0 0 0 0 -1 1 1 -0 2 1 8 11 12 12
-12 -10 -6 -5 -6 -8 -7 -7 -1 -4 -2 -3 -3 -3 -3 -3 -4 -4 -3 -2 -3 -5 -4 -2 -1 -5 -6 -4 -3 -2 -3 -4 -1 -3 -4 -0 1 -0 -2 -3 1 2 6 10 12
-10 -10 -5 -5 -8 -7 -4 -8 -3 -1 -1 -1 -3 -1 -2 -3 -3 -3 -3 -3 -3 -4 -3 -3 -3 -5 -6 -7 -5 -3 -1 -6 -5 -3 -3 -4 -3 -3 -2 -2 0 3 4 8 10
-8 -8 -4 -6 -3 -3 -5 -1 -1 -1 -1 -2 -0 -2 -0 -2 -1 -3 -1 1 -0 -0 0 -2 -0 -4 -6 -7 -6 -4 -5 -2 -3 -2 -1 -3 -1 -3 1 -1 -0 2 2 5 6
-5 -5 -4 -4 -5 -3 -2 -1 -2 -1 -1 -2 -1 -0 -1 -0 -1 -2 2 1 -1 1 1 -0 -2 -2 -4 -3 -4 -5 -3 -4 -5 -4 -5 -5 -6 -3 -0 4 2 -0 -0 2 4
-3 -4 -4 -5 -4 -3 -3 -3 -3 -2 -0 -1 -2 -0 1 0 -1 1 3 2 -2 2 4 2 -2 -0 -2 -5 -6 -5 -4 -3 -2 1 -3 -5 -7 -6 -4 -3 1 -1 -1 1 4
-0 -2 -4 -4 -1 -1 -2 -2 -3 -1 0 1 0 0 -0 1 1 1 2 0 -1 2 3 1 2 2 0 -3 -5 -3 -4 -4 -4 -4 1 -2 -5 -7 -5 -4 -4 -2 -1 -4 -5
-0 -2 -3 -2 -1 -2 -2 -2 -2 -2 -0 2 2 -1 0 1 1 1 1 -1 -2 -0 1 1 1 2 1 1 0 1 -2 -3 -3 -1 -1 -1 -4 -5 -5 -3 -3 -3 -5 -4 -4
-0 -0 -1 -2 -3 -2 -2 -2 -1 -1 -3 -1 3 3 2 2 -0 0 -0 -1 -3 -1 -2 0 2 1 0 -1 -1 0 -1 -1 -1 -1 0 -2 -2 -3 -3 -3 -3 -4 -2 -5 -3
-1 -0 1 -0 0 -1 -2 -2 -1 -2 -2 -3 3 3 3 3 1 1 -1 -0 -0 -1 -1 -2 -1 -0 -1 -3 -3 0 -1 -1 -1 -2 -2 -2 -1 -4 -4 -3 -2 -4 -4 -6 -2
-0 0 1 0 0 1 -1 -2 -2 -2 -2 -1 1 -0 -1 2 -2 -2 -3 -3 -3 -1 -1 -1 -2 -1 -2 -1 -1 0 -1 -2 -2 -3 -3 -1 -3 -5 -4 -3 -2 -3 -3 -3 -5
Wind_Speed
18 18 18 18 18 18 17 17 16 16 16 17 16 18 16 18 18 21 25 17 12 20 9 18 23 20 17 9 3 1 3 2 1 3 1 11 4 6 7 15 9 7 12 19 31
20 20 20 20 20 19 19 19 18 17 17 16 17 16 18 18 21 25 19 20 20 18 26 27 26 24 11 9 5 4 3 2 3 2 5 13 10 11 5 14 8 7 15 32 32
21 22 22 22 21 21 21 22 22 20 18 17 17 17 16 16 19 12 5 3 21 22 21 26 26 22 11 8 8 6 5 3 2 5 3 14 11 10 8 10 14 17 28 34 33
22 23 23 23 23 22 22 23 23 22 20 18 17 16 15 11 6 6 4 4 13 25 25 27 27 17 10 8 14 5 12 10 2 1 3 11 13 9 15 4 14 19 32 37 36
23 23 24 24 23 24 24 25 26 24 21 19 18 16 14 10 27 9 6 7 20 29 32 30 32 18 14 11 9 15 9 6 13 13 10 8 17 11 20 13 10 21 32 33 33
24 25 25 25 25 25 25 29 28 25 21 20 19 17 14 9 11 11 19 14 15 33 31 28 23 16 12 8 16 5 14 15 12 16 12 14 11 12 13 18 15 24 33 33 33
28 28 28 28 27 26 29 26 27 23 19 18 19 19 18 27 13 9 12 17 12 35 36 31 14 21 9 5 12 11 13 13 16 11 8 13 9 18 12 23 23 27 31 31 31
30 31 32 31 29 28 22 28 24 16 15 15 18 18 13 10 26 16 12 17 18 31 26 26 17 22 5 2 2 3 3 5 1 7 6 15 15 15 21 25 26 28 31 31 31
29 30 30 32 31 28 22 24 15 11 7 7 11 13 9 11 23 27 18 21 22 31 18 17 15 10 6 9 7 5 9 8 6 10 5 12 13 5 25 28 27 30 32 31 30
31 31 30 30 32 26 21 17 12 11 3 2 4 6 13 6 9 20 30 24 23 25 13 9 10 12 11 12 12 10 9 9 12 1 7 10 17 2 24 29 28 31 31 32 33
33 34 34 30 30 20 16 7 7 3 7 10 4 6 3 5 7 16 35 27 16 19 13 18 12 22 22 18 14 7 15 11 4 3 6 12 13 9 18 23 25 27 30 32 34
33 33 36 35 27 15 10 7 11 11 15 19 26 35 23 2 5 16 40 21 17 17 16 8 24 21 13 15 17 16 17 16 8 10 4 6 10 9 15 24 31 34 34 35 32
33 32 34 35 22 20 10 3 14 22 7 13 16 15 20 26 9 21 35 27 23 22 27 26 6 20 19 15 18 20 22 19 14 3 4 7 13 6 11 19 22 28 30 30 33
34 33 32 33 13 23 5 7 17 16 5 6 5 6 12 14 11 21 32 24 12 26 23 22 20 22 23 26 22 23 17 16 15 8 11 5 12 6 11 16 18 24 30 32 34
33 34 31 25 19 22 23 17 15 2 6 4 4 6 8 18 1 17 34 19 21 20 16 18 23 18 25 25 20 16 11 16 17 14 11 13 8 12 4 12 19 24 32 34 36
34 34 30 16 17 26 25 14 2 4 9 1 4 3 6 13 2 4 20 20 11 11 20 19 9 24 16 20 23 13 7 9 6 9 15 20 14 17 15 15 14 21 29 32 35
34 31 19 15 23 24 24 4 4 7 7 5 4 5 5 2 7 7 18 26 17 16 17 20 14 12 20 17 19 20 16 7 9 11 15 12 14 21 9 18 20 18 31 35 36
34 25 11 20 21 23 19 3 9 3 5 9 8 13 3 4 2 2 16 24 21 19 15 19 16 20 19 21 14 26 22 9 14 14 12 8 13 13 15 23 25 24 24 27 31
34 18 18 26 24 19 6 5 4 9 9 13 13 4 1 3 5 4 7 20 21 15 13 19 19 9 17 12 22 15 23 22 8 1 5 13 14 10 8 18 18 23 20 24 30
32 16 22 28 18 9 2 3 4 13 15 9 5 7 5 8 3 3 2 7 6 1 5 6 7 13 25 20 23 14 18 11 13 15 13 8 9 13 18 19 17 18 22 26 28
24 8 19 19 11 7 3 5 7 12 17 8 8 8 7 6 6 4 7 9 9 7 5 2 5 4 16 21 22 11 19 12 13 9 9 7 10 8 15 17 20 22 30 28 28
16 3 18 17 9 4 5 12 11 10 12 6 7 4 5 5 4 4 3 7 16 10 1 3 4 11 17 14 22 23 19 22 11 14 12 7 7 1 10 10 13 20 25 21 24
12 5 11 16 5 7 10 7 7 13 11 7 6 9 6 5 3 5 5 7 14 12 6 4 3 12 12 10 10 21 23 22 21 12 17 11 6 11 4 3 7 13 17 21 21
8 4 6 7 3 6 10 6 9 12 5 7 8 7 7 2 2 2 5 5 12 10 10 4 1 10 14 11 3 6 11 24 24 17 18 20 17 9 6 6 7 11 17 16 17
7 2 2 4 5 10 11 6 12 9 9 9 2 9 9 4 3 4 6 6 4 13 7 4 2 5 5 7 6 9 10 10 18 24 22 21 27 21 17 18 13 13 13 19 21
5 4 3 9 10 8 5 3 9 10 8 8 5 10 9 4 6 6 9 4 3 6 7 7 1 4 8 9 9 11 13 14 15 17 16 22 26 11 8 19 25 29 28 29 24
6 8 6 5 5 4 3 6 11 15 8 6 9 15 10 11 13 16 15 16 14 9 4 5 3 2 5 7 13 15 21 17 14 13 15 21 18 14 16 16 18 25 30 30 30
Wind_Direction
336 332 327 323 319 315 311 306 300 294 291 290 287 286 283 280 277 275 264 264 251 229 208 191 173 174 168 183 164 275 281 277 215 193 135 164 149 132 119 141 162 185 156 162 160
337 333 329 325 320 314 309 305 300 295 291 287 287 286 289 289 285 274 280 260 239 214 213 186 168 163 175 187 185 214 257 218 202 215 304 178 163 148 145 160 175 122 138 155 160
343 338 334 332 323 317 310 306 301 296 291 287 284 285 286 294 302 279 178 219 214 208 210 178 161 158 170 173 198 186 233 231 195 307 15 163 155 162 159 187 189 170 154 159 164
353 349 343 338 334 326 316 309 300 291 285 282 279 278 282 278 259 187 191 289 203 188 181 161 164 167 184 192 204 226 244 246 276 283 116 171 166 185 192 180 197 175 169 166 172
357 351 346 342 339 332 323 312 302 289 280 273 271 272 274 247 245 234 244 308 182 177 177 171 173 175 184 195 187 235 260 247 253 255 270 197 196 190 208 187 149 167 173 177 177
351 347 343 340 339 334 325 312 299 290 275 268 264 263 251 246 262 234 238 237 206 178 179 177 186 182 178 190 199 206 244 257 272 256 241 216 224 201 214 186 154 166 179 183 185
349 346 342 339 339 333 329 319 303 292 274 263 260 256 242 245 244 238 218 217 215 190 181 188 186 185 175 182 230 260 274 273 249 229 234 217 230 225 191 172 163 170 181 188 192
349 346 342 340 341 337 333 325 317 298 269 260 253 239 239 257 227 220 199 186 192 190 192 193 192 197 197 235 178 237 225 268 330 199 215 186 266 235 185 172 171 174 181 192 197
351 347 342 339 340 339 329 330 332 336 296 253 220 198 251 239 225 220 212 185 175 185 166 195 187 200 189 225 245 219 241 235 277 216 177 210 280 319 187 182 179 181 184 193 202
353 348 343 342 341 344 334 330 320 316 302 239 210 212 236 229 211 205 199 190 163 174 185 183 189 213 213 203 216 214 216 238 251 189 217 230 252 10 189 193 190 186 188 193 202
353 349 344 345 342 360 358 342 348 309 296 228 225 252 314 157 166 177 176 157 151 165 181 194 202 211 209 215 226 231 231 236 251 243 250 240 261 228 196 203 199 193 196 197 206
351 348 344 348 343 10 10 60 50 332 301 277 256 250 239 204 191 176 180 169 185 191 183 173 222 212 208 202 217 224 233 237 253 268 272 275 256 215 195 207 206 196 200 203 204
351 347 346 345 349 349 351 56 349 339 258 286 240 235 233 223 230 187 176 189 190 194 194 205 212 200 198 201 213 225 226 230 241 304 228 267 262 222 217 224 218 215 211 208 205
350 347 350 345 356 349 34 313 320 324 276 257 224 247 185 192 234 210 188 178 190 204 197 220 205 192 203 216 207 226 221 234 236 242 249 219 263 225 222 216 218 215 212 213 209
348 347 348 350 347 358 331 316 305 194 287 103 142 160 175 182 86 200 199 201 197 183 178 201 200 190 210 210 201 226 206 211 230 236 252 224 254 245 200 220 219 218 217 213 214
348 349 346 354 347 346 337 328 167 221 242 65 100 163 167 220 248 121 187 203 198 188 213 207 205 196 202 208 202 199 172 177 194 231 239 234 229 252 220 220 225 222 221 216 214
347 351 352 8 350 342 341 329 197 233 347 18 2 350 328 246 222 182 190 191 187 184 195 203 195 195 197 188 199 201 183 182 209 217 237 224 223 241 234 220 229 213 218 216 214
347 352 18 0 347 337 342 234 226 10 346 350 334 307 229 343 198 243 192 195 205 205 184 195 209 196 188 201 187 199 199 205 214 235 237 184 236 240 222 224 228 233 228 217 214
351 -0 11 351 340 328 333 240 357 21 345 329 319 296 290 10 332 333 195 209 203 206 209 202 216 190 182 185 185 185 210 210 242 142 252 227 243 259 235 217 215 223 218 215 219
354 355 2 347 350 351 276 297 333 15 339 330 329 359 342 356 354 12 80 3 246 225 300 186 207 199 197 188 199 192 173 179 213 225 234 213 240 234 198 211 214 226 220 219 224
359 4 355 353 358 28 36 324 311 344 352 323 330 315 327 342 335 22 26 53 357 326 343 236 234 146 177 202 183 184 191 200 198 222 223 245 242 201 220 215 212 216 217 218 222
360 359 351 4 39 6 352 320 303 330 343 317 308 310 306 329 329 37 85 33 355 335 357 28 241 214 206 195 213 201 197 198 202 197 232 267 241 174 232 229 233 236 233 235 229
349 326 3 35 41 354 338 307 317 346 343 350 329 2 347 334 310 46 40 20 10 20 23 352 227 199 227 212 205 218 213 206 216 229 211 211 194 236 216 182 214 230 241 249 254
356 346 348 41 51 347 338 322 331 340 9 338 331 355 344 329 14 29 14 8 345 11 350 314 24 255 222 223 13 219 217 212 219 227 228 228 242 223 244 241 271 267 269 263 259
11 22 339 317 336 324 322 301 315 351 343 339 36 17 0 295 305 5 12 340 14 1 3 15 30 338 315 308 291 262 253 239 232 235 233 243 242 239 249 276 273 280 285 288 282
352 324 300 287 295 302 321 297 310 336 324 318 5 353 349 307 22 332 348 1 4 350 6 351 313 335 307 305 290 277 255 250 246 245 255 259 261 257 277 257 267 263 269 277 268
319 302 269 273 290 288 307 322 309 327 301 313 325 320 313 291 324 312 290 274 274 296 314 317 294 265 263 325 318 269 243 244 247 240 243 244 250 253 253 243 244 257 255 252 261
Height
1519 1517 1514 1512 1509 1506 1504 1502 1500 1499 1498 1496 1496 1494 1493 1492 1490 1488 1486 1489 1492 1495 1497 1499 1504 1507 1512 1514 1514 1513 1510 1509 1505 1505 1501 1504 1506 1510 1512 1513 1518 1521 1521 1524 1529
1517 1515 1512 1509 1506 1504 1501 1498 1496 1495 1494 1493 1491 1491 1489 1488 1485 1480 1481 1482 1486 1489 1492 1495 1499 1505 1511 1513 1514 1514 1511 1502 1499 1498 1497 1501 1504 1509 1513 1515 1518 1520 1522 1524 1530
1516 1513 1510 1507 1503 1500 1497 1494 1492 1491 1489 1488 1487 1486 1486 1485 1483 1473 1474 1475 1478 1484 1489 1495 1500 1506 1509 1512 1511 1510 1505 1500 1498 1498 1496 1499 1503 1506 1510 1514 1515 1519 1520 1524 1529
1515 1511 1508 1504 1501 1497 1494 1491 1488 1485 1484 1484 1483 1482 1482 1484 1482 1471 1472 1473 1475 1481 1487 1493 1499 1503 1504 1507 1507 1507 1501 1500 1499 1499 1499 1500 1500 1503 1507 1509 1513 1518 1520 1521 1526
1513 1510 1506 1502 1498 1494 1490 1485 1482 1480 1479 1478 1478 1478 1479 1479 1468 1470 1470 1472 1473 1478 1483 1488 1494 1498 1500 1502 1504 1503 1499 1499 1499 1499 1499 1499 1497 1498 1501 1507 1510 1514 1521 1524 1527
1512 1508 1503 1499 1495 1491 1486 1479 1475 1474 1474 1473 1473 1474 1475 1475 1464 1465 1466 1469 1471 1475 1482 1487 1490 1495 1498 1498 1498 1496 1497 1497 1497 1496 1497 1495 1494 1498 1498 1504 1507 1512 1518 1523 1525
1509 1504 1500 1495 1491 1486 1480 1473 1468 1467 1467 1468 1468 1468 1468 1458 1460 1461 1463 1465 1469 1471 1477 1483 1489 1493 1494 1495 1495 1495 1494 1489 1489 1491 1490 1491 1494 1490 1495 1499 1504 1509 1516 1522 1525
1507 1502 1496 1491 1486 1481 1475 1468 1462 1460 1461 1462 1462 1463 1459 1452 1454 1457 1459 1463 1468 1473 1480 1485 1488 1492 1492 1492 1492 1490 1490 1490 1479 1481 1484 1486 1483 1482 1491 1497 1501 1506 1512 1518 1522
1505 1500 1494 1488 1482 1477 1471 1465 1460 1457 1456 1457 1458 1459 1453 1446 1447 1451 1458 1461 1465 1473 1480 1485 1490 1490 1491 1491 1493 1491 1491 1490 1484 1478 1480 1481 1478 1479 1486 1491 1497 1502 1507 1513 1520
1503 1497 1491 1485 1479 1473 1468 1462 1459 1457 1456 1456 1456 1462 1446 1442 1441 1445 1453 1460 1464 1472 1481 1484 1486 1485 1484 1486 1491 1493 1495 1488 1485 1476 1477 1477 1476 1479 1483 1487 1491 1496 1502 1507 1512
1501 1494 1488 1483 1477 1473 1468 1463 1463 1460 1455 1449 1448 1441 1439 1441 1441 1442 1449 1457 1464 1470 1471 1476 1478 1469 1476 1482 1482 1484 1485 1483 1479 1476 1477 1474 1471 1475 1481 1485 1488 1495 1498 1500 1504
1500 1493 1486 1480 1475 1473 1470 1467 1471 1474 1455 1441 1437 1437 1437 1439 1439 1441 1446 1451 1456 1460 1466 1474 1462 1466 1473 1480 1482 1483 1484 1481 1480 1476 1477 1472 1471 1472 1476 1477 1480 1484 1489 1492 1499
1499 1492 1485 1478 1473 1472 1469 1469 1470 1468 1462 1431 1426 1426 1428 1436 1435 1433 1439 1442 1445 1452 1454 1452 1452 1463 1470 1475 1479 1477 1477 1478 1480 1475 1473 1474 1472 1472 1471 1474 1479 1481 1486 1490 1494
1497 1491 1485 1477 1476 1471 1470 1470 1468 1466 1457 1426 1422 1419 1421 1428 1428 1429 1432 1435 1440 1441 1449 1451 1453 1456 1462 1464 1469 1473 1471 1477 1481 1485 1487 1471 1482 1470 1464 1468 1471 1476 1479 1482 1486
1495 1489 1484 1479 1476 1473 1472 1467 1465 1466 1447 1417 1418 1419 1418 1420 1419 1417 1424 1430 1427 1430 1440 1437 1443 1453 1458 1452 1463 1466 1469 1474 1476 1479 1480 1475 1481 1458 1464 1465 1463 1464 1468 1474 1479
1493 1488 1482 1478 1476 1472 1466 1463 1464 1461 1444 1414 1415 1417 1419 1417 1415 1416 1418 1425 1427 1431 1430 1431 1438 1444 1444 1450 1455 1461 1469 1471 1476 1476 1487 1471 1477 1454 1456 1453 1452 1456 1461 1466 1472
1492 1486 1480 1478 1475 1470 1465 1462 1460 1450 1420 1424 1422 1419 1418 1414 1411 1411 1412 1413 1413 1428 1431 1432 1435 1435 1439 1448 1453 1457 1464 1481 1490 1484 1471 1454 1471 1446 1439 1441 1440 1443 1448 1454 1460
1490 1485 1481 1478 1474 1468 1465 1461 1453 1436 1436 1431 1426 1420 1415 1416 1411 1410 1408 1410 1406 1407 1415 1429 1443 1426 1425 1430 1442 1448 1452 1461 1480 1465 1462 1459 1451 1437 1430 1434 1435 1438 1440 1446 1454
1488 1483 1481 1477 1473 1468 1467 1458 1448 1450 1454 1446 1429 1422 1417 1417 1419 1412 1408 1404 1404 1404 1410 1416 1419 1412 1418 1423 1431 1445 1447 1439 1455 1467 1465 1441 1431 1428 1426 1425 1428 1429 1435 1438 1441
1487 1481 1481 1477 1472 1468 1466 1464 1460 1461 1456 1447 1442 1434 1429 1424 1418 1414 1412 1425 1412 1413 1415 1405 1418 1406 1411 1419 1422 1427 1434 1458 1452 1470 1469 1441 1443 1425 1420 1420 1421 1424 1426 1429 1432
1487 1483 1483 1477 1473 1472 1471 1472 1467 1464 1461 1451 1445 1442 1435 1433 1425 1421 1426 1428 1425 1419 1415 1411 1408 1413 1408 1407 1412 1427 1429 1428 1432 1437 1442 1446 1425 1410 1411 1410 1410 1411 1415 1420 1425
1489 1487 1484 1479 1479 1482 1478 1478 1471 1463 1462 1456 1450 1444 1440 1436 1428 1425 1427 1430 1429 1424 1420 1420 1410 1407 1407 1399 1401 1408 1414 1420 1430 1442 1432 1426 1421 1399 1402 1403 1407 1407 1410 1415 1419
1492 1490 1487 1483 1486 1486 1485 1478 1472 1466 1463 1459 1454 1451 1446 1440 1435 1432 1432 1434 1431 1426 1428 1423 1416 1413 1411 1405 1404 1403 1404 1410 1410 1412 1428 1435 1417 1397 1401 1403 1405 1407 1407 1409 1413
1497 1493 1490 1489 1492 1491 1487 1478 1473 1470 1466 1466 1461 1454 1449 1442 1440 1438 1437 1436 1435 1432 1429 1426 1421 1408 1398 1400 1415 1416 1406 1403 1406 1412 1414 1407 1407 1400 1399 1403 1403 1404 1403 1405 1407
1501 1500 1498 1492 1489 1489 1487 1485 1477 1472 1470 1466 1465 1466 1464 1451 1442 1440 1442 1439 1437 1436 1431 1429 1425 1424 1420 1421 1420 1418 1415 1413 1408 1401 1401 1398 1397 1401 1403 1400 1401 1403 1404 1403 1403
1503 1501 1499 1495 1491 1488 1484 1480 1479 1475 1476 1468 1470 1468 1467 1460 1455 1452 1451 1445 1442 1440 1437 1436 1429 1429 1423 1417 1414 1413 1407 1408 1407 1406 1405 1401 1395 1393 1400 1403 1401 1399 1400 1400 1399
1501 1499 1497 1493 1490 1488 1481 1480 1477 1478 1473 1471 1472 1469 1463 1463 1459 1456 1454 1451 1449 1449 1444 1441 1433 1430 1426 1419 1414 1408 1393 1397 1398 1399 1399 1400 1393 1393 1393 1396 1398 1398 1397 1394 1393